Content
SEND FEEDBACK

Daily
Averages
Monthly
Summary
Brazil

PIRENOPOLIS, GOIÁS


Home > South America > Brazil > Goiás
Elevation: 2395 feet     Latitude: 15 51S     Longitude: 048 58W

WEATHER
 
SELECT A DAY
Number of Records: 56,134;   Date Range: 10/16/96 - 9/22/14
 
SHARE

PRINT THIS DATA

[ ← Previous Day ]
WEATHER ALMANAC - JANUARY 31, 2013
[ Next Day → ]
[ °C ]   °F
Weather ElementAverageHighLow
Temperature68.6 °F78.8 °F (1:00 pm)64.4 °F (1:00 am)
Dewpoint64.1 °F68 °F (3:00 pm)60.8 °F (4:00 am)
Humidity86.3 %94 % (1:00 am)61 % (1:00 pm)
Barometer25.82 in30.09 in (1:00 am) (7:00 pm)
Wind Speed4.5 mph15 mph (5:00 pm)
Weather ElementAverage
Visibility4.8 mi
Wind DirectionS (179.3 °)

Weather ElementTotal
Precipitation---
Cooling Degree Days6.6 (Base 65)
Growing Degree Days21.6 (Base 50)
Averaged from 27 records on January 31, 2013
WEATHER CONDITIONS BREAKOUT
WIND DIRECTION BREAKOUT
WEATHER BY HOUR - JANUARY 31, 2013
[ °C ]   °F
Local TimeTemperatureDewpointHumidityBarometerVisibilityWind DirectionWind SpeedGust SpeedPrecipitationEventsConditions
1:00 AM64.4 °F62.6 °F94 %30.09 in3.7 miNNW (330°)3.5 mphRainLight Rain
2:00 AM64.4 °F62.6 °F94 %30.09 in4.3 miNNW (330°)2.3 mphRainLight Rain
3:00 AM64.4 °F62.6 °F94 %30.04 in6.2 miCalmMostly Cloudy
4:00 AM64.4 °F60.8 °F88 %30.04 in6.2 miCalmMostly Cloudy
5:00 AM64.4 °F62.6 °F94 %30.01 in6.2 miCalmMostly Cloudy
6:00 AM64.4 °F62.6 °F94 %30.04 in6.2 miNNW (330°)3.5 mphMostly Cloudy
7:00 AM64.4 °F62.6 °F94 %30.04 in6.2 miNNW (330°)6.9 mphMostly Cloudy
7:35 AM64.4 °F62.6 °F94 %30.06 in0.6 miNNW (330°)8.1 mphFogFog
8:00 AM64.4 °F62.6 °F94 %30.06 in0.9 miEast (90°)5.8 mphMostly Cloudy
8:26 AM64.4 °F62.6 °F94 %30.06 in2.5 miEast (90°)4.6 mphMostly Cloudy
9:00 AM66.2 °F64.4 °F94 %30.09 in2.5 miEast (100°)3.5 mphMostly Cloudy
9:08 AM66.2 °F64.4 °F94 %30.09 in3.1 miEast (100°)4.6 mphMostly Cloudy
10:00 AM69.8 °F64.4 °F83 %30.09 in6.2 miEast (90°)5.8 mphMostly Cloudy
11:00 AM73.4 °F64.4 °F73 %30.09 in6.2 miNorth (360°)10.4 mphMostly Cloudy
12:00 PM75.2 °F66.2 °F73 %30.09 in6.2 miNorth (10°)5.8 mphMostly Cloudy
1:00 PM78.8 °F64.4 °F61 %30.06 in6.2 miWNW (300°)3.5 mphPartly Cloudy
2:00 PM73.4 °F66.2 °F78 %30.06 in3.1 miNNW (330°)3.5 mphRainLight Rain
3:00 PM77.0 °F68.0 °F74 %30.04 in3.1 miNNW (330°)2.3 mphRainLight Rain
4:00 PM75.2 °F66.2 °F73 %30.01 in6.2 miCalmPartly Cloudy
4:10 PM77.0 °F66.2 °F69 %29.98 in6.2 miSE (130°)4.6 mphThunderstormThunderstorm
5:00 PM71.6 °F66.2 °F83 %5.0 miEast (80°)15.0 mphRain-ThunderstormLight Thunderstorms and Rain
6:00 PM69.8 °F64.4 °F83 %6.2 miNNE (30°)6.9 mphThunderstormMostly Cloudy
7:00 PM68.0 °F64.4 °F88 %30.01 in5.0 miCalmRainLight Rain
8:00 PM68.0 °F64.4 °F88 %30.01 in6.2 miESE (120°)4.6 mphRainLight Rain
9:00 PM66.2 °F64.4 °F94 %5.0 miNNW (330°)4.6 mphRainLight Rain
10:00 PM66.2 °F64.4 °F94 %5.0 miNorth (350°)6.9 mphRainLight Rain
11:00 PM66.2 °F64.4 °F94 %30.06 in6.2 miNorth (350°)3.5 mphRainLight Rain
Hourly data recorded from SBAN, located miles away from Pirenopolis, Goiás







STORIES FROM OUR PARTNERS